Waarnemingen

Advertentie
Mijn weer
Malung A, Zweden (2407): temperatuur & dauwpunt: 12.01.2020 14:00:00 - 18.01.2020 14:00:00 (CET)Malung A, Zweden (2407): windsnelheid & windstoten: 12.01.2020 14:00:00 - 18.01.2020 14:00:00 (CET)Malung A, Zweden (2407): windrichting: 12.01.2020 14:00:00 - 18.01.2020 14:00:00 (CET)Malung A, Zweden (2407): luchtdruk: 12.01.2020 14:00:00 - 18.01.2020 14:00:00 (CET)Malung A, Zweden (2407): zicht: 12.01.2020 14:00:00 - 18.01.2020 14:00:00 (CET)Malung A, Zweden (2407): neerslag: 12.01.2020 14:00:00 - 18.01.2020 14:00:00 (CET)
Datum & Tijd tt [°C] td [°C] ff [km/u] ff [kn] fx [km/u] fx [kn] dd ppp [hPa] vv [km] rr [mm]
18.01.2020 14:00:00 2,2 0,1 14 7 27 15 Z 1002,6 6 1,0
18.01.2020 13:00:00 4,1 1,8 6 3 14 8 Z 1002,2 11 0,3
18.01.2020 12:00:00 3,9 1,6 6 4 13 7 Z 1002,5 27 0,1
18.01.2020 11:00:00 3,7 1,7 8 5 13 7 Z 1002,8 37 0,1
18.01.2020 10:00:00 3,5 1,2 7 4 19 10 ZZW 1002,9 50 0,0
18.01.2020 09:00:00 3,2 1,1 7 4 11 6 ZZW 1003,0 50 0,0
18.01.2020 08:00:00 2,0 -0,4 4 2 7 4 ZO 1003,0 15 0,0
18.01.2020 07:00:00 1,8 -0,9 3 2 5 3 ZZO 1003,1 0,6 0,1
18.01.2020 06:00:00 2,5 0,2 4 2 11 6 O 1003,3 29 0,2
18.01.2020 05:00:00 2,9 0,5 8 4 16 8 ZZO 1003,5 30 1,0
18.01.2020 04:00:00 3,2 1,2 9 5 14 8 Z 1003,7 7 0,9
18.01.2020 03:00:00 3,3 1,3 11 6 16 8 Z 1004,1 12 0,6
18.01.2020 02:00:00 3,4 1,4 8 4 14 7 Z 1004,5 8 0,1
18.01.2020 01:00:00 3,7 1,7 7 4 14 8 Z 1005,2 3,7 0,5
18.01.2020 00:00:00 3,8 2,0 9 5 16 8 ZZO 1005,9 3,7 0,3
17.01.2020 23:00:00 3,8 1,8 8 4 - - ZZO 1006,5 6 0,1
17.01.2020 22:00:00 3,9 1,9 9 5 19 11 Z 1007,1 7 0,0
17.01.2020 21:00:00 4,0 2,2 10 5 24 13 Z 1007,5 3,5 0,0
17.01.2020 20:00:00 3,9 2,3 14 7 24 13 Z 1007,9 5 0,0
17.01.2020 19:00:00 4,0 2,4 18 10 32 18 Z 1007,9 8 0,0
17.01.2020 18:00:00 4,0 2,4 16 9 24 13 Z 1008,4 8 0,0
17.01.2020 17:00:00 3,9 2,3 15 8 24 13 Z 1008,9 7 0,0
17.01.2020 16:00:00 3,7 1,9 9 5 28 15 Z 1009,6 4,7 0,0
17.01.2020 15:00:00 3,8 2,2 12 7 27 15 Z 1009,8 3,3 0,0
17.01.2020 14:00:00 3,9 2,1 16 9 30 16 Z 1010,2 12 0,0
17.01.2020 13:00:00 4,0 2,0 15 8 34 18 Z 1010,5 20 0,0
17.01.2020 12:00:00 4,3 2,3 16 8 26 14 Z 1010,7 14 0,0
17.01.2020 11:00:00 3,8 2,2 18 10 32 18 Z 1011,1 7 0,0
17.01.2020 10:00:00 3,8 1,7 18 10 36 19 Z 1011,3 21 0,0
17.01.2020 09:00:00 3,4 1,0 13 7 29 16 Z 1011,3 24 0,0
17.01.2020 08:00:00 3,3 0,9 14 7 27 15 Z 1011,7 20 0,0
17.01.2020 07:00:00 3,2 0,9 14 8 24 13 Z 1012,1 23 0,1
17.01.2020 06:00:00 3,3 0,7 14 8 26 14 Z 1013,0 19 0,0
17.01.2020 05:00:00 3,8 0,5 15 8 26 14 Z 1013,6 23 0,0
17.01.2020 04:00:00 3,7 0,7 16 9 27 15 Z 1014,6 19 0,0
17.01.2020 03:00:00 3,8 0,5 13 7 23 13 ZZW 1015,2 22 0,0
17.01.2020 02:00:00 3,6 -0,1 14 8 29 16 ZZW 1015,2 24 0,0
17.01.2020 01:00:00 3,4 -1,0 6 3 33 18 ZW 1015,6 24 0,0
17.01.2020 00:00:00 3,3 -0,5 18 10 35 19 ZW 1015,6 25 0,0
16.01.2020 23:00:00 3,3 -0,9 15 8 32 17 ZW 1015,7 27 0,0
16.01.2020 22:00:00 3,4 -1,4 13 7 31 17 ZW 1014,9 30 0,0
16.01.2020 21:00:00 3,8 -1,0 16 9 39 21 ZW 1014,8 37 0,0
16.01.2020 20:00:00 4,1 -0,7 20 11 37 20 ZW 1014,0 50 0,0
16.01.2020 19:00:00 - -0,5 17 9 44 24 ZW 1013,6 50 0,0
16.01.2020 18:00:00 - -0,3 21 11 39 21 ZZW 1012,5 50 0,0
16.01.2020 17:00:00 - -0,6 13 7 30 16 ZW 1011,8 50 0,0
16.01.2020 16:00:00 - -0,4 13 7 37 20 ZZW 1011,1 50 0,0
16.01.2020 15:00:00 - 0,0 17 9 43 23 ZW 1010,0 50 0,0
16.01.2020 14:00:00 - -0,2 12 6 32 17 ZW 1009,2 50 0,0
16.01.2020 13:00:00 - 0,0 14 8 33 18 WZW 1008,3 50 0,0
16.01.2020 12:00:00 - 0,4 20 11 39 21 ZW 1007,0 48 0,0
16.01.2020 11:00:00 - 0,7 18 10 42 23 ZZW 1005,9 35 0,0
16.01.2020 10:00:00 - 0,6 16 9 32 17 ZZW 1004,8 31 0,0
16.01.2020 09:00:00 4,5 0,6 15 8 33 18 Z 1003,6 27 0,0
16.01.2020 08:00:00 - 0,4 18 10 37 20 ZZW 1002,4 30 0,0
16.01.2020 07:00:00 - 0,1 18 10 46 25 ZZW 1001,4 28 0,0
16.01.2020 06:00:00 - 0,0 20 11 41 22 ZZW 1000,1 29 0,0
16.01.2020 05:00:00 4,3 0,1 20 11 36 19 ZZW 999,5 30 0,0
16.01.2020 04:00:00 4,2 0,0 16 8 33 18 ZZW 999,1 30 0,0
16.01.2020 03:00:00 3,8 0,3 16 9 37 20 ZZW 998,5 29 0,0
16.01.2020 02:00:00 3,5 0,2 14 8 35 19 ZZW 998,1 23 0,0
16.01.2020 01:00:00 3,2 0,1 15 8 35 19 ZZW 997,8 18 0,0
16.01.2020 00:00:00 3,7 -0,5 16 9 36 20 ZZW 998,0 21 0,0
15.01.2020 23:00:00 3,8 -0,6 11 6 24 13 ZZW 997,6 23 0,0
15.01.2020 22:00:00 3,6 -0,6 15 8 31 17 ZZW 997,5 27 0,0
15.01.2020 21:00:00 3,5 -0,9 13 7 31 17 ZZW 997,2 34 0,0
15.01.2020 20:00:00 3,5 -0,7 16 9 31 17 ZZW 996,7 34 0,0
15.01.2020 19:00:00 3,5 -0,9 14 7 34 18 ZZW 996,5 37 0,0
15.01.2020 18:00:00 3,1 -1,3 10 5 26 14 ZZW 996,2 31 0,0
15.01.2020 17:00:00 2,8 -1,4 12 7 27 14 ZZW 995,4 42 0,0
15.01.2020 16:00:00 3,1 -1,5 16 9 32 18 ZZW 994,4 49 0,0
15.01.2020 15:00:00 3,4 -1,4 15 8 36 20 ZW 993,8 50 0,0
15.01.2020 14:00:00 3,5 -1,3 14 7 30 16 ZZW 993,0 50 0,0
15.01.2020 13:00:00 4,0 -1,0 17 9 39 21 ZW 991,7 50 0,0
15.01.2020 12:00:00 4,2 -0,6 16 8 41 22 WZW 990,8 50 0,0
15.01.2020 11:00:00 - 0,0 20 11 48 26 ZW 989,1 50 0,0
15.01.2020 10:00:00 - 0,5 19 10 37 20 WZW 987,5 50 0,0
15.01.2020 09:00:00 - 1,0 20 11 46 25 WZW 985,8 50 0,0
15.01.2020 08:00:00 - 2,0 21 12 61 33 ZW 984,0 50 0,0
15.01.2020 07:00:00 - 3,6 19 10 40 22 ZW 982,4 25 0,0
15.01.2020 06:00:00 2,5 0,9 11 6 21 11 Z 982,1 43 0,1
15.01.2020 05:00:00 0,7 -0,9 14 7 21 11 ZZO 982,2 3,4 1,8
15.01.2020 04:00:00 0,5 -1,7 5 3 10 6 OZO 983,7 2,4 1,8
15.01.2020 03:00:00 0,3 -1,6 5 3 21 12 OZO 986,1 1,1 2,5
15.01.2020 02:00:00 1,9 0,1 12 7 23 12 ZO 987,9 9 1,2
15.01.2020 01:00:00 2,2 0,1 14 7 29 16 ZZO 989,9 4,8 0,4
15.01.2020 00:00:00 2,8 0,2 14 7 26 14 Z 991,4 11 0,0
14.01.2020 23:00:00 3,0 -0,5 13 7 26 14 Z 992,5 13 0,0
14.01.2020 22:00:00 3,0 -1,2 7 4 33 18 ZZW 993,0 16 0,0
14.01.2020 21:00:00 2,4 -1,2 10 6 31 17 ZW 992,9 20 0,0
14.01.2020 20:00:00 2,7 -0,9 16 9 32 17 ZZW 992,4 31 0,0
14.01.2020 19:00:00 3,2 -0,6 15 8 31 17 ZZW 992,0 24 0,0
14.01.2020 18:00:00 3,5 -0,3 15 8 42 23 ZW 991,0 25 0,0
14.01.2020 17:00:00 - - - - - - - - - -
14.01.2020 16:00:00 4,1 1,0 18 10 - - ZZW 989,4 19 0,0
14.01.2020 15:00:00 3,8 1,2 19 10 33 18 ZZW 989,2 23 0,0
14.01.2020 14:00:00 3,4 1,1 17 9 36 19 Z 989,4 46 0,0
14.01.2020 13:00:00 2,9 1,0 18 10 36 19 Z 989,6 12 0,2
14.01.2020 12:00:00 2,1 0,2 24 13 40 22 Z 989,7 8 0,0
14.01.2020 11:00:00 1,5 -0,4 19 11 38 20 Z 990,2 6 0,4
14.01.2020 10:00:00 1,1 -0,8 23 12 44 24 Z 990,7 9 0,8
14.01.2020 09:00:00 1,2 -0,7 22 12 41 22 Z 991,6 5 0,9
14.01.2020 08:00:00 1,0 -0,8 22 12 39 21 ZZO 992,9 2,7 0,6
14.01.2020 07:00:00 1,8 -0,8 23 12 48 26 ZZO 994,5 32 0,0
14.01.2020 06:00:00 2,0 -0,6 23 13 47 25 Z 996,3 39 0,0
14.01.2020 05:00:00 2,2 -0,2 23 12 44 24 Z 997,9 17 0,0
14.01.2020 04:00:00 1,9 -0,5 19 11 35 19 Z 999,5 50 0,0
14.01.2020 03:00:00 1,7 -0,7 18 10 30 16 Z 1000,8 50 0,0
14.01.2020 02:00:00 1,4 -0,8 18 10 35 19 Z 1002,2 29 0,0
14.01.2020 01:00:00 1,4 -1,2 16 9 27 14 Z 1003,2 50 0,0
14.01.2020 00:00:00 1,1 -1,6 11 6 21 12 Z 1004,0 49 0,0
13.01.2020 23:00:00 1,0 -2,1 12 6 - - Z 1004,3 48 0,0
13.01.2020 22:00:00 1,2 -2,2 9 5 24 13 Z 1005,1 37 0,0
13.01.2020 21:00:00 1,4 -2,4 13 7 34 18 ZZW 1005,0 50 0,0
13.01.2020 20:00:00 1,2 -2,2 14 8 31 17 ZZW 1005,5 50 0,0
13.01.2020 19:00:00 0,5 -2,4 16 9 29 16 ZZW 1005,5 50 0,0
13.01.2020 18:00:00 -0,7 -3,4 11 6 - - Z 1005,8 50 0,0
13.01.2020 17:00:00 -0,8 -4,0 11 6 19 10 ZZW 1005,8 50 0,0
13.01.2020 16:00:00 -1,3 -4,8 7 4 15 8 ZZO 1005,6 50 0,0
13.01.2020 15:00:00 -0,1 -4,5 7 4 11 6 Z 1005,1 50 0,0
13.01.2020 14:00:00 0,4 -5,0 5 3 25 13 ZZW 1005,6 50 0,0
13.01.2020 13:00:00 0,3 -4,7 16 9 25 14 ZZW 1005,7 50 0,0
13.01.2020 12:00:00 0,1 -5,1 14 8 23 12 Z 1005,6 50 0,0
13.01.2020 11:00:00 -2,0 -6,4 6 4 11 6 ZZO 1006,2 50 0,0
13.01.2020 10:00:00 -3,2 -6,5 5 3 14 7 ZW 1005,7 50 0,0
13.01.2020 09:00:00 -3,9 -7,3 2 1 7 4 ZZW 1005,6 50 0,0
13.01.2020 08:00:00 -4,4 -7,8 6 4 11 6 OZO 1005,4 50 0,0
13.01.2020 07:00:00 -4,1 -7,7 3 1 10 6 ZW 1004,9 50 0,0
13.01.2020 06:00:00 -2,0 -6,9 4 2 15 8 ZW 1004,6 50 0,0
13.01.2020 05:00:00 -3,3 -6,8 6 3 10 5 Z 1004,6 50 0,0
13.01.2020 04:00:00 -3,8 -7,2 3 1 11 6 OZO 1004,5 50 0,0
13.01.2020 03:00:00 -3,0 -6,1 5 3 13 7 ZW 1004,5 50 0,0
13.01.2020 02:00:00 -2,0 -5,7 4 2 17 9 ONO 1004,0 50 0,0
13.01.2020 01:00:00 -0,9 -5,9 4 2 13 7 ZW 1003,6 50 0,0
13.01.2020 00:00:00 0,4 -6,0 3 2 27 14 W 1003,2 50 0,0
12.01.2020 23:00:00 0,9 -5,1 11 6 25 13 ZW 1002,8 50 0,0
12.01.2020 22:00:00 0,8 -4,6 13 7 32 17 ZZW 1002,8 50 0,0
12.01.2020 21:00:00 -0,2 -5,0 7 4 30 16 Z 1002,5 50 0,0
12.01.2020 20:00:00 1,3 -4,4 16 8 33 18 ZZW 1002,0 50 0,0
12.01.2020 19:00:00 1,2 -3,9 20 11 35 19 ZZW 1001,7 50 0,0
12.01.2020 18:00:00 1,1 -4,0 13 7 25 13 ZZW 1001,8 50 0,0
12.01.2020 17:00:00 0,0 -4,8 8 4 21 11 Z 1001,7 50 0,0
12.01.2020 16:00:00 2,0 -4,3 7 4 31 17 WZW 1001,2 50 0,0
12.01.2020 15:00:00 2,4 -4,1 8 5 24 13 WZW 1000,8 50 0,0
12.01.2020 14:00:00 3,3 -3,3 10 5 31 17 W 1000,4 50 0,0

tt = temperatuur
td = dauwpunt
ff = windsnelheid
fx = windstoten
dd = windrichting
ppp = luchtdruk
vv = zicht
rr = neerslag

Weerstations in de omgeving